TimeCST,TemperatureF,Dew PointF,Humidity,Sea Level PressureIn,VisibilityMPH,Wind Direction,Wind SpeedMPH,Gust SpeedMPH,PrecipitationIn,Events,Conditions,WindDirDegrees,DateUTC
12:52 AM,16.0,9.0,74,30.47,-9999.0,NNW,5.8,-,N/A,,Unknown,330,2013-01-21 06:52:00
1:52 AM,15.1,7.0,70,30.47,-9999.0,Variable,4.6,-,N/A,,Unknown,0,2013-01-21 07:52:00
2:52 AM,14.0,7.0,74,30.48,-9999.0,NW,5.8,-,N/A,,Unknown,310,2013-01-21 08:52:00
3:52 AM,15.1,7.0,70,30.45,-9999.0,Variable,4.6,-,N/A,,Unknown,0,2013-01-21 09:52:00
4:52 AM,16.0,6.1,65,30.45,-9999.0,NW,5.8,-,N/A,,Unknown,320,2013-01-21 10:52:00
5:52 AM,16.0,7.0,68,30.45,-9999.0,NW,9.2,-,N/A,,Unknown,320,2013-01-21 11:52:00
6:52 AM,16.0,7.0,68,30.46,-9999.0,NW,8.1,-,N/A,,Unknown,320,2013-01-21 12:52:00
7:52 AM,14.0,-2.9,47,30.47,-9999.0,NW,13.8,20.7,N/A,,Unknown,320,2013-01-21 13:52:00
8:52 AM,12.0,-6.0,44,30.51,-9999.0,NW,13.8,20.7,N/A,,Unknown,310,2013-01-21 14:52:00
9:52 AM,12.9,-6.0,43,30.52,-9999.0,NNW,9.2,17.3,N/A,,Unknown,330,2013-01-21 15:52:00
10:52 AM,12.9,-4.0,47,30.54,-9999.0,NNW,5.8,-,N/A,,Unknown,340,2013-01-21 16:52:00
11:52 AM,12.9,-6.0,43,30.53,-9999.0,North,8.1,17.3,N/A,,Unknown,350,2013-01-21 17:52:00
12:52 PM,12.0,-6.0,44,30.51,-9999.0,NNW,8.1,-,N/A,,Unknown,330,2013-01-21 18:52:00
1:52 PM,12.9,-6.0,43,30.49,-9999.0,NW,5.8,-,N/A,,Unknown,320,2013-01-21 19:52:00
2:52 PM,14.0,-6.0,41,30.49,-9999.0,NW,5.8,-,N/A,,Unknown,320,2013-01-21 20:52:00
3:52 PM,12.9,-6.0,43,30.49,-9999.0,NW,8.1,-,N/A,,Unknown,320,2013-01-21 21:52:00
4:52 PM,12.9,-5.1,45,30.48,-9999.0,WNW,5.8,-,N/A,,Unknown,300,2013-01-21 22:52:00
5:52 PM,12.9,-5.1,45,30.48,-9999.0,WNW,5.8,-,N/A,,Unknown,300,2013-01-21 23:52:00
6:52 PM,12.9,-6.0,43,30.48,-9999.0,NW,8.1,-,N/A,,Unknown,310,2013-01-22 00:52:00
7:52 PM,12.9,-5.1,45,30.49,-9999.0,Variable,6.9,-,N/A,,Unknown,0,2013-01-22 01:52:00
8:52 PM,12.0,-2.9,51,30.49,-9999.0,NNW,3.5,-,N/A,,Unknown,330,2013-01-22 02:52:00
9:52 PM,12.0,-4.0,49,30.50,-9999.0,NW,4.6,-,N/A,,Unknown,320,2013-01-22 03:52:00
10:52 PM,12.9,-2.9,49,30.50,-9999.0,WNW,3.5,-,N/A,,Unknown,300,2013-01-22 04:52:00
11:52 PM,12.0,-2.9,51,30.49,-9999.0,WNW,3.5,-,N/A,,Unknown,290,2013-01-22 05:52:00